User: anonymous   Login
Location: Unspecified
(0.0000°N, 0.0000°E)
Time: 12:27:11
(UTC+01:00)
Language:

Orbus 21S - Orbit

View from above orbital plane
View from above orbital plane
View from above satellite
View from above satellite

Ground track
Ground track

The orbit data is extracted from the following two-line orbital elements,

1 20669U 90056C   16036.89885173  .00005086  00000-0  19004-2 0  9993
2 20669  24.3214 296.0298 7127655  23.7544 357.0900  2.46717350215080
Epoch (UTC): 05 February 2016 21:34:20
Eccentricity: 0.7127655
inclination: 24.3214°
perigee height: 267 km
apogee height: 33246 km
right ascension of ascending node: 296.0298°
argument of perigee: 23.7544°
revolutions per day: 2.46717350
mean anomaly at epoch: 357.0900°
orbit number at epoch: 21508

The dashed part of the orbit path shows where the satellite is in the earth's shadow,  

DLR